Home   Weather   Krems   Past weeks

Flag for Austria Past Weather in Krems, Lower Austria, Austria — Yesterday and Last 2 Weeks

Now
57 °F

Partly sunny.


Feels Like: 54 °F
Forecast: 31 / 42 °F
Wind: 15 mph from Southwest

Location: Tulln Airport

Current Time: Nov 22, 2017 at 3:57:45 pm

Latest Report: Nov 22, 2017 at 3:20 pm


Visibility: 37 mi

Pressure: 29.92 "Hg

Humidity: 51%

Dew Point: 39 °F

Location of KremsLocation

Past Weather in Krems — Graph

°F

Krems Temperature Yesterday

Maximum temperature yesterday: 48 °F (at 12:50 pm)
Minimum temperature yesterday: 37 °F (at 4:50 am)
Average temperature yesterday: 46 °F

High & Low Weather Summary for the Past Weeks

 TemperatureHumidityPressure
High59 °F (Nov 22, 12:50 pm)100% (Nov 8, 7:50 pm)30.39 "Hg (Nov 8, 7:50 pm)
Low30 °F (Nov 15, 8:50 pm)48% (Nov 22, 2:20 pm)29.42 "Hg (Nov 12, 7:50 pm)
Average43 °F78%30.07 "Hg
* Reported Nov 7 2:20 pm — Nov 22 2:20 pm, Krems. Weather by CustomWeather, © 2017

Note: Actual official high and low records may vary slightly from our data, if they occured in-between our weather recording intervals... More about our weather records

Advertising

Krems Weather History for the Previous 24 Hours

Scroll right to see more
 ConditionsComfort  
Time TempWeatherWind HumidityBarometerVisibility
2:20 pm
Wed, Nov 22
59 °FPartly sunny.18 mph48%29.92 "Hg37 mi
1:50 pm59 °FPartly sunny.10 mph51%29.92 "Hg37 mi
1:20 pm59 °FPartly sunny.16 mph51%29.92 "Hg37 mi
12:50 pm59 °FPartly sunny.18 mph51%29.92 "Hg37 mi
12:20 pm57 °FPartly sunny.15 mph59%29.92 "Hg37 mi
11:50 am57 °FPartly sunny.10 mph59%29.95 "Hg37 mi
11:20 am55 °FPartly sunny.12 mph63%29.95 "Hg37 mi
10:50 am52 °FPartly sunny.14 mph67%29.95 "Hg37 mi
9:50 am52 °FPartly sunny.14 mph67%29.95 "Hg37 mi
9:20 am50 °FBroken clouds.15 mph71%29.95 "Hg37 mi
8:50 am50 °FBroken clouds.15 mph71%29.92 "Hg37 mi
8:20 am48 °FBroken clouds.13 mph76%29.92 "Hg37 mi
7:50 am48 °FBroken clouds.14 mph76%29.92 "Hg37 mi
7:20 am46 °FBroken clouds.7 mph76%29.92 "Hg37 mi
6:50 am46 °FPassing clouds.5 mph82%29.92 "Hg19 mi
5:50 am46 °FPassing clouds.7 mph82%29.92 "Hg12 mi
4:50 am46 °FClear.9 mph82%29.92 "Hg16 mi
9:50 pm
Tue, Nov 21
48 °FPassing clouds.9 mph87%29.95 "Hg12 mi
8:50 pm48 °FPassing clouds.13 mph87%29.95 "Hg12 mi
7:50 pm46 °FLight rain. Passing clouds.14 mph93%29.95 "Hg12 mi
7:20 pm48 °FLight rain. Passing clouds.16 mph87%29.95 "Hg12 mi
6:50 pm48 °FLight rain. Passing clouds.17 mph82%29.95 "Hg12 mi
6:20 pm48 °FPassing clouds.17 mph82%29.95 "Hg12 mi
5:50 pm48 °FLight rain. Passing clouds.17 mph82%29.95 "Hg12 mi
5:20 pm48 °FLight rain. Passing clouds.18 mph82%29.95 "Hg12 mi
4:50 pm48 °FPassing clouds.17 mph82%29.95 "Hg12 mi
4:20 pm48 °FPassing clouds.17 mph82%29.95 "Hg12 mi
3:50 pm48 °FPartly sunny.18 mph82%29.95 "Hg12 mi
3:20 pm48 °FPartly sunny.20 mph82%29.95 "Hg12 mi
Weather by CustomWeather, © 2017

See weather overview